Oakland, CA

12:55 PM PDT on August 21, 2017 (GMT -0700)
Metro Oakland International

Weather History for KOAK - December, 2010

Change the Weather History Date:

Friday, December 10, 2010

  Actual Average Record
Temperature  
Mean Temperature 60 °F 49 °F  
Max Temperature 64 °F 57 °F 71 °F (1958)
Min Temperature 56 °F 42 °F 27 °F (1972)
Degree Days  
Heating Degree Days 5 16  
Month to date heating degree days 115 151  
Since 1 July heating degree days 613 826  
Cooling Degree Days 0 0  
Month to date cooling degree days 0 0  
Year to date cooling degree days 256 138  
Growing Degree Days 10 (Base 50)    
Moisture  
Dew Point 56 °F    
Average Humidity 89    
Maximum Humidity 93    
Minimum Humidity 84    
Precipitation  
Precipitation T in 0.11 in 0.74 in (2006)
Month to date precipitation 1.36 1.00  
Year to date precipitation 20.05 18.15  
Since 1 July precipitation 4.96  
Sea Level Pressure  
Sea Level Pressure 30.23 in    
Wind  
Wind Speed 3 mph (NNW)    
Max Wind Speed 9 mph    
Max Gust Speed 10 mph    
Visibility 8 miles    
Events Rain    
T = Trace of Precipitation, MM = Missing Value Source: NWS Daily Summary

Daily Weather History Graph

Daily Weather History Graph

Search for Another Location

Airport or City:

Trip Planner

Search our weather history database for the weather conditions in past years. The results will help you decide how hot, cold, wet, or windy it might be!

Date:

Astronomy

Dec. 10, 2010 Rise Set
Actual Time 7:13 AM PST 4:50 PM PST
Civil Twilight 6:44 AM PST 5:19 PM PST
Nautical Twilight 6:11 AM PST 5:52 PM PST
Astronomical Twilight 5:39 AM PST 6:24 PM PST
Moon 10:46 AM PST (12/10) 9:56 PM PST (12/10)
Length of Visible Light 10h 35m
Length of Day
9h 36m
Waxing Crescent, 25% of the Moon is Illuminated
Dec 10
Waxing Crescent
Dec 13
First Quarter
Dec 21
Full
Dec 27
Last Quarter
Jan 4
New

Hourly Weather History & Observations

Time (PST) Temp. Dew Point Humidity Pressure Visibility Wind Dir Wind Speed Gust Speed Precip Events Conditions
12:53 AM 57.0 °F 54.0 °F 89% 30.17 in 9.0 mi Calm Calm - N/A   Overcast
1:53 AM 57.2 °F 55.4 °F 94% 30.18 in 6.0 mi East 3.5 mph - N/A   Overcast
2:53 AM 57.9 °F 55.0 °F 90% 30.18 in 8.0 mi SE 3.5 mph - N/A   Overcast
3:53 AM 57.9 °F 55.0 °F 90% 30.19 in 10.0 mi SE 3.5 mph - N/A   Overcast
4:21 AM 57.2 °F 55.4 °F 94% 30.18 in 10.0 mi SE 6.9 mph - N/A   Overcast
4:29 AM 57.2 °F 55.4 °F 94% 30.18 in 10.0 mi SE 6.9 mph - N/A   Overcast
4:53 AM 57.9 °F 55.0 °F 90% 30.18 in 10.0 mi SE 5.8 mph - N/A   Overcast
5:53 AM 59.0 °F 55.0 °F 87% 30.19 in 10.0 mi South 4.6 mph - N/A   Overcast
6:53 AM 57.9 °F 55.0 °F 90% 30.21 in 10.0 mi West 3.5 mph - N/A   Overcast
7:53 AM 57.9 °F 55.0 °F 90% 30.22 in 10.0 mi Calm Calm - N/A   Overcast
8:53 AM 57.9 °F 55.0 °F 90% 30.24 in 10.0 mi Calm Calm - N/A   Mostly Cloudy
9:00 AM 59.0 °F 55.4 °F 88% 30.23 in 10.0 mi NNW 4.6 mph - N/A   Mostly Cloudy
9:53 AM 59.0 °F 55.9 °F 90% 30.26 in 4.0 mi Calm Calm - 0.00 in Rain Light Rain
9:57 AM 59.0 °F 55.4 °F 88% 30.26 in 5.0 mi Calm Calm - 0.00 in Rain Light Rain
10:53 AM 60.1 °F 57.0 °F 90% 30.26 in 10.0 mi WNW 3.5 mph - 0.00 in   Overcast
11:53 AM 60.1 °F 55.9 °F 86% 30.25 in 9.0 mi WNW 4.6 mph - N/A   Overcast
12:53 PM 60.1 °F 55.9 °F 86% 30.23 in 9.0 mi WNW 5.8 mph - N/A   Overcast
1:53 PM 62.1 °F 57.0 °F 84% 30.22 in 9.0 mi Calm Calm - N/A   Overcast
2:53 PM 63.0 °F 57.0 °F 81% 30.22 in 9.0 mi Calm Calm - N/A   Mostly Cloudy
3:07 PM 62.6 °F 57.2 °F 82% 30.21 in 7.0 mi WNW 5.8 mph - N/A   Mostly Cloudy
3:16 PM 62.6 °F 57.2 °F 82% 30.22 in 7.0 mi NW 4.6 mph - N/A   Mostly Cloudy
3:34 PM 62.6 °F 57.2 °F 82% 30.22 in 9.0 mi Variable 3.5 mph - N/A   Mostly Cloudy
3:53 PM 61.0 °F 55.9 °F 83% 30.22 in 7.0 mi NW 5.8 mph - N/A   Mostly Cloudy
4:53 PM 60.1 °F 55.9 °F 86% 30.24 in 7.0 mi NNW 5.8 mph - N/A   Overcast
5:15 PM 59.0 °F 55.4 °F 88% 30.24 in 7.0 mi NNW 6.9 mph - N/A   Overcast
5:53 PM 59.0 °F 55.9 °F 90% 30.24 in 7.0 mi North 3.5 mph - N/A   Overcast
6:19 PM 59.0 °F 55.4 °F 88% 30.24 in 5.0 mi NNW 5.8 mph - N/A   Overcast
6:42 PM 59.0 °F 55.4 °F 88% 30.24 in 7.0 mi NNE 3.5 mph - N/A   Mostly Cloudy
6:53 PM 57.9 °F 55.0 °F 90% 30.24 in 7.0 mi NNE 3.5 mph - N/A   Mostly Cloudy
7:04 PM 57.2 °F 55.4 °F 94% 30.24 in 7.0 mi North 3.5 mph - N/A   Mostly Cloudy
7:18 PM 57.2 °F 55.4 °F 94% 30.24 in 7.0 mi NNE 3.5 mph - N/A   Mostly Cloudy
7:53 PM 57.0 °F 55.0 °F 93% 30.24 in 7.0 mi Calm Calm - N/A   Mostly Cloudy
8:14 PM 57.2 °F 55.4 °F 94% 30.24 in 7.0 mi Calm Calm - N/A   Mostly Cloudy
8:53 PM 57.9 °F 55.9 °F 93% 30.25 in 5.0 mi NNW 3.5 mph - N/A   Overcast
9:53 PM 57.9 °F 55.0 °F 90% 30.25 in 7.0 mi NNW 5.8 mph - N/A   Overcast
10:53 PM 57.9 °F 55.0 °F 90% 30.26 in 7.0 mi NW 4.6 mph - N/A   Overcast
11:40 PM 57.2 °F 55.4 °F 94% 30.26 in 9.0 mi WNW 4.6 mph - N/A   Overcast
11:53 PM 57.0 °F 55.0 °F 93% 30.26 in 9.0 mi West 3.5 mph - N/A   Overcast